CW1120 Goteborg SE current weather conditions

sailwx.info

Wind from 275 at 5 knots gusting 7

Air temperature 4.4° C
Dewpoint 2.8° C

Last reported at 2020-Feb-19 18:02 UTC.
Time now 2020-Feb-19 18:53 UTC

Location: N 58°01' E 011°35'.
View on Google Maps.

See reports from other nearby stations

  
Tides and Currents Weather Stations Pressure Air Temp Water Temp Dewpoint Dewpoint Depression Visibility Wind Speed Wind Dir Waves Ship Positions
date/time (UTC)wind fromknots sea level pressurealtimeterstation pressurevisibilityair tempwater tempwave heightnotes
2020-Feb-19 18:02 275 5 gusting 7 4.4
2020-Feb-19 17:52 273 6 gusting 8 4.4
2020-Feb-19 17:42 274 5 gusting 6 4.4
2020-Feb-19 17:32 266 4 gusting 6 5.0
2020-Feb-19 17:22 277 4 gusting 10 5.0
2020-Feb-19 17:12 275 4 gusting 9 5.0
2020-Feb-19 17:02 270 6 gusting 12 5.0
2020-Feb-19 16:52 262 7 gusting 11 5.0
2020-Feb-19 16:42 265 6 gusting 12 5.0
2020-Feb-19 16:32 286 7 gusting 11 5.0
2020-Feb-19 16:22 246 5 gusting 7 5.0
2020-Feb-19 16:12 271 4 gusting 6 5.6
2020-Feb-19 16:02 269 4 gusting 7 6.1
2020-Feb-19 15:52 273 5 gusting 8 6.1
2020-Feb-19 15:42 273 5 gusting 11 6.7
2020-Feb-19 15:32 268 6 gusting 11 6.7
2020-Feb-19 15:22 273 8 gusting 12 6.7
2020-Feb-19 15:12 277 7 gusting 11 7.2
2020-Feb-19 15:02 290 8 gusting 12 7.2
2020-Feb-19 14:52 276 7 gusting 11 7.2
2020-Feb-19 14:42 275 6 gusting 10 7.2
2020-Feb-19 14:33 277 7 gusting 11 7.2
2020-Feb-19 14:22 294 9 gusting 14 7.2
2020-Feb-19 14:12 277 8 gusting 13 7.8
2020-Feb-19 14:02 291 9 gusting 13 7.8
2020-Feb-19 13:52 307 10 gusting 13 7.8
2020-Feb-19 13:42 275 8 gusting 13 7.8
2020-Feb-19 13:32 275 9 gusting 13 7.8
2020-Feb-19 13:22 281 8 gusting 12 7.8
2020-Feb-19 13:12 284 9 gusting 13 8.3
2020-Feb-19 13:02 306 8 gusting 13 8.3
2020-Feb-19 12:52 285 8 gusting 12 8.3
2020-Feb-19 12:42 266 6 gusting 13 8.3
2020-Feb-19 12:32 290 6 gusting 12 8.3
2020-Feb-19 12:22 281 6 gusting 13 8.3
2020-Feb-19 12:12 261 7 gusting 12 8.3
2020-Feb-19 12:02 311 9 gusting 13 8.3
2020-Feb-19 11:52 245 9 gusting 13 8.3
2020-Feb-19 11:42 282 9 gusting 13 7.8
2020-Feb-19 11:32 281 6 gusting 12 7.8
2020-Feb-19 11:22 296 8 gusting 13 7.2
2020-Feb-19 11:12 286 6 gusting 15 6.7
2020-Feb-19 11:02 298 8 gusting 12 6.7
2020-Feb-19 10:52 294 10 gusting 14 6.7
2020-Feb-19 10:42 290 9 gusting 14 6.7
2020-Feb-19 10:32 290 9 gusting 13 6.7
2020-Feb-19 10:22 287 9 gusting 13 6.7
2020-Feb-19 10:12 297 9 gusting 14 6.7
2020-Feb-19 10:02 279 9 gusting 14 6.7
2020-Feb-19 09:52 279 9 gusting 14 6.7
2020-Feb-19 09:42 293 8 gusting 13 7.2
2020-Feb-19 09:32 279 6 gusting 12 7.2
2020-Feb-19 09:22 288 6 gusting 11 7.2
2020-Feb-19 09:12 268 6 gusting 10 7.2
2020-Feb-19 09:02 283 8 gusting 12 7.2
2020-Feb-19 08:52 293 6 gusting 10 7.2
2020-Feb-19 08:42 267 6 gusting 9 6.7
2020-Feb-19 08:32 284 6 gusting 9 5.6
2020-Feb-19 08:22 279 6 gusting 11 4.4
2020-Feb-19 08:12 284 6 gusting 12 4.4
2020-Feb-19 08:02 277 6 gusting 10 4.4
2020-Feb-19 07:52 279 6 gusting 10 4.4
2020-Feb-19 07:42 288 6 gusting 11 5.0
2020-Feb-19 07:32 254 6 gusting 11 5.0
2020-Feb-19 07:22 279 9 gusting 12 5.0
2020-Feb-19 07:12 259 7 gusting 13 5.0
2020-Feb-19 07:02 256 10 gusting 13 5.0
2020-Feb-19 06:52 252 12 gusting 15 5.0
2020-Feb-19 06:42 248 8 gusting 13 4.4
2020-Feb-19 06:32 250 12 gusting 15 5.0
2020-Feb-19 06:22 248 12 gusting 16 5.0
2020-Feb-19 06:12 251 12 gusting 15 5.0
2020-Feb-19 06:02 237 13 gusting 16 5.0
2020-Feb-19 05:52 249 11 gusting 13 5.0
2020-Feb-19 05:42 246 9 gusting 13 4.4
2020-Feb-19 05:32 246 9 gusting 13 5.0
2020-Feb-19 05:22 213 10 gusting 16 4.4
2020-Feb-19 05:12 237 8 gusting 15 4.4
2020-Feb-19 05:02 240 10 gusting 14 4.4
2020-Feb-19 04:52 234 9 gusting 13 4.4
2020-Feb-19 04:42 229 10 gusting 14 4.4
2020-Feb-19 04:32 248 9 gusting 13 4.4
2020-Feb-19 04:22 218 10 gusting 14 4.4
2020-Feb-19 04:12 221 8 gusting 15 4.4
2020-Feb-19 04:02 235 7 gusting 14 4.4
2020-Feb-19 03:52 217 10 gusting 16 5.0
2020-Feb-19 03:42 227 13 gusting 15 4.4
2020-Feb-19 03:32 225 9 gusting 14 4.4
2020-Feb-19 03:22 225 10 gusting 14 4.4
2020-Feb-19 03:12 221 9 gusting 13 4.4
2020-Feb-19 03:02 224 10 gusting 16 4.4
2020-Feb-19 02:52 208 13 gusting 16 5.0
2020-Feb-19 02:42 237 13 gusting 19 5.0
2020-Feb-19 02:32 229 13 gusting 17 5.0
2020-Feb-19 02:22 216 12 gusting 18 5.0
2020-Feb-19 02:12 221 9 gusting 14 5.0
2020-Feb-19 02:02 188 9 gusting 13 5.0
2020-Feb-19 01:53 219 10 gusting 15 5.0
2020-Feb-19 01:43 220 10 gusting 16 5.0
2020-Feb-19 01:32 223 10 gusting 15 5.0
2020-Feb-19 01:22 209 9 gusting 14 5.0
2020-Feb-19 01:12 225 12 gusting 18 5.0
2020-Feb-19 01:02 247 13 gusting 17 5.0
2020-Feb-19 00:52 215 13 gusting 18 5.0
2020-Feb-19 00:42 229 14 gusting 19 5.0
2020-Feb-19 00:32 224 13 gusting 21 5.0
2020-Feb-19 00:22 222 13 gusting 19 5.0
2020-Feb-19 00:12 245 13 gusting 19 5.0
2020-Feb-19 00:02 233 14 gusting 19 5.0
2020-Feb-18 23:52 240 12 gusting 18 5.0
2020-Feb-18 23:42 210 11 gusting 15 5.0
2020-Feb-18 23:33 230 11 gusting 16 5.0
2020-Feb-18 23:22 217 13 gusting 19 5.0
2020-Feb-18 23:12 223 14 gusting 19 5.0
2020-Feb-18 23:02 224 14 gusting 19 5.6
2020-Feb-18 22:52 226 13 gusting 18 5.6
2020-Feb-18 22:42 219 13 gusting 19 5.6
2020-Feb-18 22:32 221 13 gusting 20 5.6
2020-Feb-18 22:22 234 12 gusting 18 5.6
2020-Feb-18 22:12 231 13 gusting 19 5.6
2020-Feb-18 22:02 227 15 gusting 19 5.0
2020-Feb-18 21:52 237 13 gusting 19 5.0
2020-Feb-18 21:42 244 12 gusting 18 5.0
2020-Feb-18 21:32 227 11 gusting 22 5.0
2020-Feb-18 21:22 225 14 gusting 21 5.0
2020-Feb-18 21:12 213 15 gusting 22 5.6
2020-Feb-18 21:02 223 15 gusting 20 5.6
2020-Feb-18 20:52 211 13 gusting 19 5.6
2020-Feb-18 20:42 224 13 gusting 18 5.6
2020-Feb-18 20:32 220 12 gusting 21 5.6
2020-Feb-18 20:22 215 18 gusting 21 5.6
2020-Feb-18 20:12 210 16 gusting 22 5.6
2020-Feb-18 20:02 252 16 gusting 23 5.6
2020-Feb-18 19:52 245 19 gusting 27 6.1
2020-Feb-18 19:42 244 19 gusting 26 6.1
2020-Feb-18 19:32 251 15 gusting 22 6.1
2020-Feb-18 19:22 234 14 gusting 26 6.1
2020-Feb-18 19:12 248 19 gusting 24 6.1
2020-Feb-18 19:02 238 16 gusting 27 6.1
2020-Feb-18 18:52 250 16 gusting 22 6.1
2020-Feb-18 18:42 246 15 gusting 26 6.1
2020-Feb-18 18:32 227 17 gusting 26 6.1
2020-Feb-18 18:22 252 19 gusting 27 6.1
2020-Feb-18 18:12 249 19 gusting 27 6.1
2020-Feb-18 18:02 242 18 gusting 22 6.1
2020-Feb-18 17:52 240 16 gusting 25 6.1
2020-Feb-18 17:42 240 20 gusting 27 6.1
2020-Feb-18 17:32 251 20 gusting 28 6.1
2020-Feb-18 17:22 244 18 gusting 22 6.1
2020-Feb-18 17:12 244 16 gusting 22 6.1
2020-Feb-18 17:02 250 16 gusting 24 6.1
2020-Feb-18 16:52 252 22 gusting 28 6.1
2020-Feb-18 16:42 206 19 gusting 25 6.1
2020-Feb-18 16:32 205 19 gusting 26 6.1
2020-Feb-18 16:22 234 17 gusting 27 6.1
2020-Feb-18 16:13 244 22 gusting 29 6.1
2020-Feb-18 16:02 254 19 gusting 26 6.1
2020-Feb-18 15:52 247 19 gusting 25 6.1
2020-Feb-18 15:42 241 20 gusting 26 6.7
2020-Feb-18 15:32 244 21 gusting 31 6.7
2020-Feb-18 15:22 245 20 gusting 28 6.7
2020-Feb-18 15:12 248 20 gusting 26 6.1
2020-Feb-18 15:02 230 19 gusting 28 6.1
2020-Feb-18 14:52 237 17 gusting 28 6.7
2020-Feb-18 14:42 241 19 gusting 28 6.7
2020-Feb-18 14:32 240 22 gusting 27 6.7
2020-Feb-18 14:22 258 22 gusting 29 7.2
2020-Feb-18 14:12 252 21 gusting 26 7.2
2020-Feb-18 14:02 254 19 gusting 26 7.2
2020-Feb-18 13:52 247 21 gusting 26 7.2
2020-Feb-18 13:42 246 16 gusting 24 7.2
2020-Feb-18 13:32 240 22 gusting 29 7.2
2020-Feb-18 13:22 254 20 gusting 25 7.8
2020-Feb-18 13:12 251 22 gusting 32 7.8
2020-Feb-18 13:02 257 19 gusting 25 7.8
2020-Feb-18 12:52 254 18 gusting 28 8.3
2020-Feb-18 12:42 267 18 gusting 24 7.2
2020-Feb-18 12:32 245 18 gusting 25 7.2
2020-Feb-18 12:22 258 19 gusting 29 7.2
2020-Feb-18 12:12 249 20 gusting 24 7.8
2020-Feb-18 12:02 225 19 gusting 26 7.8
2020-Feb-18 11:52 229 19 gusting 26 7.2
2020-Feb-18 11:42 246 21 gusting 28 7.2
2020-Feb-18 11:32 245 19 gusting 25 7.2
2020-Feb-18 11:22 247 19 gusting 24 7.2
2020-Feb-18 11:12 237 14 gusting 20 6.7
2020-Feb-18 11:02 247 16 gusting 24 6.7
2020-Feb-18 10:52 231 18 gusting 23 6.7
2020-Feb-18 10:42 241 17 gusting 26 6.7
2020-Feb-18 10:32 217 14 gusting 20 6.7
2020-Feb-18 10:22 232 14 gusting 19 6.7
2020-Feb-18 10:12 242 15 gusting 22 6.1
2020-Feb-18 10:02 248 16 gusting 21 6.1
2020-Feb-18 09:52 226 15 gusting 24 6.1
2020-Feb-18 09:42 225 18 gusting 24 6.1
2020-Feb-18 09:32 254 16 gusting 22 6.1
2020-Feb-18 09:22 215 15 gusting 25 6.1
2020-Feb-18 09:12 218 15 gusting 25 6.1
2020-Feb-18 09:02 250 17 gusting 26 6.1
2020-Feb-18 08:52 240 19 gusting 25 6.1
2020-Feb-18 08:42 240 17 gusting 26 6.1
2020-Feb-18 08:32 234 17 gusting 31 6.1
2020-Feb-18 08:22 221 19 gusting 30 6.1
2020-Feb-18 08:12 237 15 gusting 26 6.1
2020-Feb-18 08:02 251 17 gusting 24 6.1
2020-Feb-18 07:52 207 16 gusting 25 6.1
2020-Feb-18 07:42 220 18 gusting 23 6.1
2020-Feb-18 07:32 244 19 gusting 31 6.1
2020-Feb-18 07:22 229 19 gusting 28 6.1
2020-Feb-18 07:12 246 24 gusting 30 6.1
2020-Feb-18 07:02 216 20 gusting 29 6.1
2020-Feb-18 06:52 238 19 gusting 32 6.1
2020-Feb-18 06:42 244 19 gusting 27 6.1
2020-Feb-18 06:32 238 13 gusting 23 5.6
2020-Feb-18 06:22 241 19 gusting 28 5.6
2020-Feb-18 06:12 240 18 gusting 26 6.1
2020-Feb-18 06:02 221 17 gusting 28 6.1
2020-Feb-18 05:52 232 19 gusting 24 6.1
2020-Feb-18 05:42 236 16 gusting 23 6.1
2020-Feb-18 05:32 243 14 gusting 23 6.1
2020-Feb-18 05:22 236 14 gusting 24 6.1
2020-Feb-18 05:12 221 16 gusting 24 6.7
2020-Feb-18 05:02 211 16 gusting 25 6.7
2020-Feb-18 04:52 229 16 gusting 25 6.7
2020-Feb-18 04:42 221 17 gusting 25 6.7
2020-Feb-18 04:32 240 18 gusting 23 6.7
2020-Feb-18 04:22 229 14 gusting 20 6.7
2020-Feb-18 04:12 235 15 gusting 20 6.7
2020-Feb-18 04:02 226 15 gusting 19 6.7
2020-Feb-18 03:52 230 18 gusting 24 6.7
2020-Feb-18 03:42 228 17 gusting 24 6.7
2020-Feb-18 03:32 213 18 gusting 26 6.7
2020-Feb-18 03:22 197 14 gusting 21 6.7
2020-Feb-18 03:12 229 17 gusting 26 6.7
2020-Feb-18 03:02 226 19 gusting 25 7.2
2020-Feb-18 02:52 234 17 gusting 23 7.2
2020-Feb-18 02:32 198 16 gusting 23 7.2
2020-Feb-18 02:22 223 17 gusting 21 7.2
2020-Feb-18 02:12 243 17 gusting 23 7.2
2020-Feb-18 02:02 214 16 gusting 23 7.2
2020-Feb-18 01:52 227 16 gusting 24 7.2
2020-Feb-18 01:42 217 12 gusting 20 7.2
2020-Feb-18 01:32 225 16 gusting 24 7.2
2020-Feb-18 01:22 217 13 gusting 21 7.2
2020-Feb-18 01:12 236 16 gusting 23 7.2
2020-Feb-18 01:02 200 15 gusting 23 7.2
2020-Feb-18 00:52 217 15 gusting 20 7.2
2020-Feb-18 00:42 233 15 gusting 22 7.2
2020-Feb-18 00:32 220 16 gusting 22 7.2
2020-Feb-18 00:22 227 15 gusting 24 7.2
2020-Feb-18 00:12 215 16 gusting 25 7.2
2020-Feb-18 00:02 244 17 gusting 26 7.2
2020-Feb-17 23:52 221 17 gusting 28 7.2
2020-Feb-17 23:42 247 17 gusting 26 7.2
2020-Feb-17 23:32 219 16 gusting 25 7.2
2020-Feb-17 23:22 245 19 gusting 25 7.2
2020-Feb-17 23:12 244 20 gusting 27 7.2
2020-Feb-17 23:02 260 19 gusting 26 7.2
2020-Feb-17 22:52 248 20 gusting 26 7.2
2020-Feb-17 22:42 234 17 gusting 26 7.2
2020-Feb-17 22:32 244 19 gusting 26 7.2
2020-Feb-17 22:22 241 18 gusting 28 7.2
2020-Feb-17 22:12 248 18 gusting 28 7.2
2020-Feb-17 22:02 251 19 gusting 28 7.2
2020-Feb-17 21:52 237 21 gusting 29 7.2
2020-Feb-17 21:42 256 19 gusting 31 7.2
2020-Feb-17 21:32 227 23 gusting 31 7.2
2020-Feb-17 21:22 236 23 gusting 31 7.2
2020-Feb-17 21:12 251 21 gusting 32 7.2
2020-Feb-17 21:02 248 25 gusting 33 7.2
2020-Feb-17 20:52 214 25 gusting 33 7.2
2020-Feb-17 20:42 248 23 gusting 36 7.2
2020-Feb-17 20:32 234 23 gusting 33 7.2
2020-Feb-17 20:22 250 24 gusting 37 7.2
2020-Feb-17 20:12 228 29 gusting 39 7.2
2020-Feb-17 20:02 242 27 gusting 36 7.2
2020-Feb-17 19:42 249 27 gusting 39 7.2
2020-Feb-17 19:32 242 27 gusting 39 7.2
2020-Feb-17 19:22 211 26 gusting 37 7.2
2020-Feb-17 19:12 231 25 gusting 35 7.2
2020-Feb-17 19:02 229 22 gusting 33 7.2
2020-Feb-17 18:52 239 19 gusting 33 7.2
2020-Feb-17 18:42 217 17 gusting 31 7.2
2020-Feb-17 18:32 207 21 gusting 26 7.2
2020-Feb-17 18:22 225 19 gusting 27 7.2
2020-Feb-17 18:12 243 17 gusting 27 7.2
2020-Feb-17 18:02 238 18 gusting 29 7.2